Satellite: NOAA-12
Catalog number: 21263
Epoch time: 08010.50380292
Element set: 500
Inclination: 098.7620 deg
RA of node: 012.5011 deg
Eccentricity: 0.0011829
Arg of perigee: 223.3749 deg
Mean anomaly: 136.6480 deg
Mean motion: 14.25511450 rev/day
Decay rate: -3.3e-07 rev/day^2
Epoch rev: 86578
Checksum: 261
Satellite: MET-3/5
Catalog number: 21655
Epoch time: 08009.96139271
Element set: 0392
Inclination: 082.5529 deg
RA of node: 216.8469 deg
Eccentricity: 0.0014579
Arg of perigee: 053.6223 deg
Mean anomaly: 306.6241 deg
Mean motion: 13.17014269 rev/day
Decay rate: 5.1e-07 rev/day^2
Epoch rev: 78862
Checksum: 314
Satellite: MET-2/21
Catalog number: 22782
Epoch time: 08010.62359505
Element set: 34
Inclination: 082.5453 deg
RA of node: 237.3453 deg
Eccentricity: 0.0023249
Arg of perigee: 018.2634 deg
Mean anomaly: 341.9353 deg
Mean motion: 13.83624509 rev/day
Decay rate: 1.12e-06 rev/day^2
Epoch rev: 72520
Checksum: 274
Satellite: OKEAN-4
Catalog number: 23317
Epoch time: 08010.45291962
Element set: 474
Inclination: 082.5409 deg
RA of node: 103.1862 deg
Eccentricity: 0.0020545
Arg of perigee: 292.1692 deg
Mean anomaly: 067.7310 deg
Mean motion: 14.82568537 rev/day
Decay rate: 2.65e-06 rev/day^2
Epoch rev: 71476
Checksum: 299
Satellite: NOAA-14
Catalog number: 23455
Epoch time: 08009.88212973
Element set: 0971
Inclination: 098.9680 deg
RA of node: 081.9146 deg
Eccentricity: 0.0008958
Arg of perigee: 231.1196 deg
Mean anomaly: 128.9171 deg
Mean motion: 14.13734336 rev/day
Decay rate: 3.13e-06 rev/day^2
Epoch rev: 67184
Checksum: 327
Satellite: SICH-1
Catalog number: 23657
Epoch time: 08009.82592396
Element set: 273
Inclination: 082.5264 deg
RA of node: 244.7070 deg
Eccentricity: 0.0022463
Arg of perigee: 286.0259 deg
Mean anomaly: 073.8479 deg
Mean motion: 14.81542441 rev/day
Decay rate: 2.73e-06 rev/day^2
Epoch rev: 66662
Checksum: 317
Satellite: NOAA-15
Catalog number: 25338
Epoch time: 08010.49615476
Element set: 308
Inclination: 098.5438 deg
RA of node: 006.4751 deg
Eccentricity: 0.0011169
Arg of perigee: 140.7791 deg
Mean anomaly: 219.4188 deg
Mean motion: 14.24681246 rev/day
Decay rate: 3.5e-07 rev/day^2
Epoch rev: 50220
Checksum: 295
Satellite: RESURS
Catalog number: 25394
Epoch time: 08010.67912094
Element set: 828
Inclination: 098.4127 deg
RA of node: 061.6789 deg
Eccentricity: 0.0001286
Arg of perigee: 343.0461 deg
Mean anomaly: 017.0675 deg
Mean motion: 14.24151849 rev/day
Decay rate: -2.2e-07 rev/day^2
Epoch rev: 49388
Checksum: 306
Satellite: FENGYUN1
Catalog number: 25730
Epoch time: 08009.91472139
Element set: 311
Inclination: 098.7105 deg
RA of node: 351.1809 deg
Eccentricity: 0.0020264
Arg of perigee: 259.7004 deg
Mean anomaly: 100.1881 deg
Mean motion: 14.07663338 rev/day
Decay rate: 4.34e-06 rev/day^2
Epoch rev: 44655
Checksum: 278
Satellite: OKEAN-0
Catalog number: 25860
Epoch time: 08009.53649671
Element set: 0259
Inclination: 097.7393 deg
RA of node: 007.2450 deg
Eccentricity: 0.0001881
Arg of perigee: 070.7370 deg
Mean anomaly: 289.4040 deg
Mean motion: 14.73495615 rev/day
Decay rate: 7.5e-07 rev/day^2
Epoch rev: 45588
Checksum: 318
Satellite: NOAA-16
Catalog number: 26536
Epoch time: 08010.46179933
Element set: 757
Inclination: 099.1416 deg
RA of node: 356.2751 deg
Eccentricity: 0.0009996
Arg of perigee: 314.6127 deg
Mean anomaly: 045.4234 deg
Mean motion: 14.12463718 rev/day
Decay rate: -2.11e-06 rev/day^2
Epoch rev: 37636
Checksum: 314
Satellite: NOAA-17
Catalog number: 27453
Epoch time: 08009.82826073
Element set: 0755
Inclination: 098.5581 deg
RA of node: 078.9259 deg
Eccentricity: 0.0011527
Arg of perigee: 207.8436 deg
Mean anomaly: 152.2111 deg
Mean motion: 14.23939476 rev/day
Decay rate: 2.5e-07 rev/day^2
Epoch rev: 28812
Checksum: 321
Satellite: NOAA-18
Catalog number: 28654
Epoch time: 08009.87410704
Element set: 0267
Inclination: 098.8530 deg
RA of node: 312.9025 deg
Eccentricity: 0.0015062
Arg of perigee: 046.3082 deg
Mean anomaly: 313.9313 deg
Mean motion: 14.11127724 rev/day
Decay rate: 1.00e-06 rev/day^2
Epoch rev: 13600
Checksum: 263
/EX
SB KEPS @ AMSAT $ORB08010.M
Orbital Elements 08010.MISC
HR AMSAT ORBITAL ELEMENTS FOR MANNED AND MISCELLANEOUS SATELLITES
FROM WA5QGD FORT WORTH,TX January 10, 2008
Send Subscribe/unsubscribe to KEPS at
http://www.amsat.org/mailman/listinfo/keps
BID: ORB08010.M
TO ALL RADIO AMATEURS BT
Satellite: HUBBLE
Catalog number: 20580
Epoch time: 08010.82652910
Element set: 45
Inclination: 028.4701 deg
RA of node: 276.0489 deg
Eccentricity: 0.0004226
Arg of perigee: 146.0216 deg
Mean anomaly: 214.0644 deg
Mean motion: 15.00325609 rev/day
Decay rate: 4.54e-06 rev/day^2
Epoch rev: 77117
Checksum: 255
Satellite: UARS
Catalog number: 21701
Epoch time: 08009.84228450
Element set: 0282
Inclination: 056.9742 deg
RA of node: 135.8838 deg
Eccentricity: 0.0083730
Arg of perigee: 228.8731 deg
Mean anomaly: 130.5079 deg
Mean motion: 15.50181569 rev/day
Decay rate: 8.641e-05 rev/day^2
Epoch rev: 89777
Checksum: 325
Satellite: PO-34
Catalog number: 25520
Epoch time: 08010.59784711
Element set: 906
Inclination: 028.4592 deg
RA of node: 160.4628 deg
Eccentricity: 0.0004892
Arg of perigee: 356.9075 deg
Mean anomaly: 003.1491 deg
Mean motion: 15.17114065 rev/day
Decay rate: 6.06e-06 rev/day^2
Epoch rev: 50905
Checksum: 292
Satellite: ISS
Catalog number: 25544
Epoch time: 08011.03576389
Element set: 688
Inclination: 051.6403 deg
RA of node: 111.9399 deg
Eccentricity: 0.0002650
Arg of perigee: 049.5565 deg
Mean anomaly: 310.6642 deg
Mean motion: 15.78714598 rev/day
Decay rate: 2.8406e-04 rev/day^2
Epoch rev: 52357
Checksum: 318
Satellite: OO-38
Catalog number: 26063
Epoch time: 08009.71498467
Element set: 106
Inclination: 100.2149 deg
RA of node: 055.3831 deg
Eccentricity: 0.0036559
Arg of perigee: 298.9642 deg
Mean anomaly: 060.7879 deg
Mean motion: 14.35824753 rev/day
Decay rate: -7.0e-08 rev/day^2
Epoch rev: 41668
Checksum: 332
Satellite: UWE-1
Catalog number: 28892
Epoch time: 08009.42573831
Element set: 0944
Inclination: 098.1148 deg
RA of node: 266.7228 deg
Eccentricity: 0.0017006
Arg of perigee: 185.0471 deg
Mean anomaly: 175.0546 deg
Mean motion: 14.59580493 rev/day
Decay rate: 7.4e-07 rev/day^2
Epoch rev: 11729
Checksum: 319
Satellite: CO-58
Catalog number: 28895
Epoch time: 08010.42646235
Element set: 919
Inclination: 098.1163 deg
RA of node: 267.9949 deg
Eccentricity: 0.0017564
Arg of perigee: 182.2697 deg
Mean anomaly: 177.8407 deg
Mean motion: 14.59623241 rev/day
Decay rate: 3.4e-07 rev/day^2
Epoch rev: 11732
Checksum: 340
Satellite: NCUBE2
Catalog number: 28897
Epoch time: 08010.27226604
Element set: 448
Inclination: 098.1131 deg
RA of node: 267.7820 deg
Eccentricity: 0.0016920
Arg of perigee: 184.4649 deg
Mean anomaly: 175.6396 deg
Mean motion: 14.59790823 rev/day
Decay rate: 1.24e-06 rev/day^2
Epoch rev: 10958
Checksum: 323
Satellite: FCAL
Catalog number: 29667
Epoch time: 08010.65671676
Element set: 657
Inclination: 051.6318 deg
RA of node: 079.2835 deg
Eccentricity: 0.0010239
Arg of perigee: 076.4291 deg
Mean anomaly: 283.7858 deg
Mean motion: 15.98616253 rev/day
Decay rate: 3.9380e-04 rev/day^2
Epoch rev: 6106
Checksum: 333
Satellite: FALCON
Catalog number: 30776
Epoch time: 08009.54259183
Element set: 0231
Inclination: 035.4341 deg
RA of node: 041.5969 deg
Eccentricity: 0.0000670
Arg of perigee: 030.1214 deg
Mean anomaly: 329.9541 deg
Mean motion: 15.02846898 rev/day
Decay rate: 5.45e-06 rev/day^2
Epoch rev: 04611
Checksum: 280
Satellite: MAST
Catalog number: 31126
Epoch time: 08009.24695377
Element set: 0228
Inclination: 098.0616 deg
RA of node: 079.9217 deg
Eccentricity: 0.0095857
Arg of perigee: 107.5825 deg
Mean anomaly: 253.5891 deg
Mean motion: 14.53391948 rev/day
Decay rate: 3.41e-06 rev/day^2
Epoch rev: 03878
Checksum: 335
Satellite: CAPE1
Catalog number: 31130
Epoch time: 08009.93240846
Element set: 0214
Inclination: 098.0599 deg
RA of node: 079.9539 deg
Eccentricity: 0.0103572
Arg of perigee: 106.9963 deg
Mean anomaly: 254.2588 deg
Mean motion: 14.51919809 rev/day
Decay rate: -3.4e-07 rev/day^2
Epoch rev: 03861
Checksum: 320
/EX
More information about the Keps
mailing list